EZY4282 EGCC-LIEE

Flight info

Callsign EZY4282
Flight time N/A
Altitude 35000
Route SANBA1Y SANBA N859 HON UL612 VEULE/N0441F370 UL612 ODEBU DCT OKRIX DCT OBURO DCT DJL DCT KOVAR DCT MILPA DCT ESAPI DCT VANAS DCT VEVAR Y24 GAPDO DCT PIGOS DCT OMARD M623 PELOS/N0375F190 M731 TEKSA M732 KOVAS KOVAS1W
Aircraft A319/M-SDE3FGHIRWY/LB1

Departure

Time N/A
Airport Manchester Airport (EGCC)

Arrival

Time 2026-05-08 14:32
Airport Cagliari Elmas Airport (LIEE)
Time Latitude Longitude Altitude Speed Heading
2026-05-08 14:10 40.09353 8.72955 30151 ft 387 kts 168°
2026-05-08 14:10 40.06825 8.74151 29717 ft 385 kts 168°
2026-05-08 14:11 40.04313 8.75341 29116 ft 382 kts 168°
2026-05-08 14:11 40.01828 8.76523 28422 ft 378 kts 168°
2026-05-08 14:11 39.99458 8.78011 27964 ft 380 kts 156°
2026-05-08 14:11 39.97236 8.79871 27572 ft 377 kts 155°
2026-05-08 14:12 39.95038 8.81716 27186 ft 373 kts 155°
2026-05-08 14:12 39.92867 8.83531 26809 ft 369 kts 155°
2026-05-08 14:12 39.90718 8.85323 26418 ft 365 kts 156°
2026-05-08 14:12 39.88581 8.87101 26043 ft 363 kts 156°
2026-05-08 14:13 39.86462 8.88865 25685 ft 360 kts 156°
2026-05-08 14:13 39.84387 8.90595 25331 ft 357 kts 156°
2026-05-08 14:13 39.82297 8.92336 24976 ft 354 kts 156°
2026-05-08 14:13 39.80236 8.94053 24624 ft 351 kts 156°
2026-05-08 14:14 39.78188 8.95758 24274 ft 348 kts 156°
2026-05-08 14:14 39.76160 8.97443 23933 ft 345 kts 156°
2026-05-08 14:14 39.74202 8.99070 23611 ft 342 kts 156°
2026-05-08 14:14 39.72207 9.00726 23202 ft 339 kts 156°
2026-05-08 14:15 39.70246 9.02355 22810 ft 335 kts 156°
2026-05-08 14:15 39.68289 9.03977 22416 ft 332 kts 156°
2026-05-08 14:15 39.66351 9.05582 22001 ft 329 kts 157°
2026-05-08 14:15 39.64425 9.07163 21614 ft 324 kts 159°
2026-05-08 14:16 39.62407 9.08186 21239 ft 301 kts 181°
2026-05-08 14:16 39.60395 9.08259 20867 ft 281 kts 199°
2026-05-08 14:16 39.58586 9.07540 20495 ft 265 kts 216°
2026-05-08 14:16 39.57105 9.06225 20085 ft 254 kts 230°
2026-05-08 14:17 39.56025 9.04511 19605 ft 246 kts 244°
2026-05-08 14:17 39.55366 9.02522 19236 ft 236 kts 257°
2026-05-08 14:17 39.55142 9.00447 18888 ft 230 kts 269°
2026-05-08 14:17 39.55332 8.98405 18538 ft 227 kts 282°
2026-05-08 14:18 39.55909 8.96517 18182 ft 226 kts 294°
2026-05-08 14:18 39.56841 8.94875 17789 ft 228 kts 307°
2026-05-08 14:18 39.58052 8.93548 17396 ft 228 kts 316°
2026-05-08 14:18 39.59368 8.92396 17009 ft 228 kts 319°
2026-05-08 14:19 39.60707 8.91302 16629 ft 227 kts 320°
2026-05-08 14:19 39.62052 8.90219 16262 ft 227 kts 320°
2026-05-08 14:19 39.63396 8.89131 15892 ft 229 kts 320°
2026-05-08 14:19 39.64860 8.88225 15523 ft 240 kts 336°
2026-05-08 14:20 39.66545 8.87905 15133 ft 253 kts 353°
2026-05-08 14:20 39.68336 8.88225 14525 ft 274 kts 12°
2026-05-08 14:20 39.70083 8.89321 13954 ft 285 kts 32°
2026-05-08 14:20 39.71521 8.91127 13313 ft 293 kts 52°
2026-05-08 14:21 39.72460 8.93497 12669 ft 298 kts 72°
2026-05-08 14:21 39.72743 8.96153 12125 ft 297 kts 94°
2026-05-08 14:21 39.72351 8.98743 11637 ft 290 kts 113°
2026-05-08 14:21 39.71357 9.00975 11140 ft 284 kts 133°
2026-05-08 14:22 39.69921 9.02673 10657 ft 277 kts 146°
2026-05-08 14:22 39.68347 9.04099 10155 ft 274 kts 149°
2026-05-08 14:22 39.66742 9.05417 9601 ft 272 kts 151°
2026-05-08 14:22 39.65108 9.06624 9062 ft 268 kts 161°
2026-05-08 14:23 39.63318 9.07099 8618 ft 260 kts 181°
2026-05-08 14:23 39.61519 9.07141 8086 ft 258 kts 182°
2026-05-08 14:23 39.59760 9.07182 7807 ft 245 kts 181°
2026-05-08 14:23 39.58108 9.07220 7686 ft 231 kts 182°
2026-05-08 14:24 39.56540 9.07257 7555 ft 220 kts 182°
2026-05-08 14:24 39.55051 9.07292 7426 ft 209 kts 181°
2026-05-08 14:24 39.53636 9.07097 7122 ft 204 kts 196°
2026-05-08 14:24 39.52751 9.06711 6883 ft 202 kts 205°
2026-05-08 14:25 39.51166 9.05430 6400 ft 201 kts 217°
2026-05-08 14:25 39.50045 9.04362 6047 ft 198 kts 216°
2026-05-08 14:25 39.48955 9.03335 6018 ft 197 kts 216°
2026-05-08 14:25 39.47845 9.02291 6016 ft 198 kts 216°
2026-05-08 14:26 39.46748 9.01260 6055 ft 190 kts 216°
2026-05-08 14:26 39.45722 9.00295 6005 ft 177 kts 216°
2026-05-08 14:26 39.44750 8.99382 6003 ft 167 kts 217°
2026-05-08 14:26 39.43821 8.98509 5993 ft 163 kts 217°
2026-05-08 14:27 39.42887 8.97629 5571 ft 174 kts 217°
2026-05-08 14:27 39.41868 8.96671 5042 ft 187 kts 216°
2026-05-08 14:27 39.41157 8.96002 4694 ft 193 kts 216°
2026-05-08 14:27 39.40048 8.94958 4157 ft 200 kts 216°
2026-05-08 14:28 39.38919 8.93897 3705 ft 201 kts 217°
2026-05-08 14:28 39.37704 8.93024 3247 ft 201 kts 196°
2026-05-08 14:28 39.36322 8.92990 2778 ft 201 kts 167°
2026-05-08 14:28 39.35108 8.93840 2395 ft 197 kts 137°
2026-05-08 14:29 39.34151 8.95003 2273 ft 181 kts 137°
2026-05-08 14:29 39.33253 8.96054 2149 ft 168 kts 138°
2026-05-08 14:29 39.32392 8.97048 2071 ft 165 kts 138°
2026-05-08 14:29 39.31541 8.98030 2004 ft 162 kts 138°
2026-05-08 14:30 39.30706 8.98992 1981 ft 161 kts 138°
2026-05-08 14:30 39.29852 8.99976 1400 ft 176 kts 138°
2026-05-08 14:30 39.28922 9.01052 980 ft 173 kts 139°
2026-05-08 14:30 39.28045 9.02070 650 ft 167 kts 139°
2026-05-08 14:31 39.27213 9.03037 461 ft 155 kts 139°
2026-05-08 14:31 39.26450 9.03927 268 ft 139 kts 140°
2026-05-08 14:31 39.25746 9.04741 41 ft 129 kts 141°
2026-05-08 14:32 39.25047 9.05604 20 ft 10 kts 65°
2026-05-08 14:32 39.25082 9.05673 19 ft 10 kts 59°
2026-05-08 14:32 39.25118 9.05752 19 ft 11 kts 59°
2026-05-08 14:32 39.25158 9.05842 19 ft 12 kts 59°
2026-05-08 14:33 39.25206 9.05823 19 ft 8 kts 321°
2026-05-08 14:33 39.25238 9.05845 19 ft 0 kts 50°